Location: Bannatyne
(13.0833°N, 59.5333°W)
Time: 17:19:11
(UTC+00:00)

Vanguard 2 Rocket - Pass Details

Date: 28 January 2020
Orbit: 554 x 3326 km, 32.9° (Epoch: 02 April)

Event Time Altitude Azimuth Distance (km) Brightness Sun altitude
Rises 02:01:37 0° 203° (SSW) 5,398 11.1 -58.5°
Enters shadow 02:05:38 - 190° (S) 4,373 10.5 -59.4°
Reaches altitude 10° 02:10:20 10° 165° (SSE) 3,427 - -60.5°
Maximum altitude 02:11:13 10° 159° (SSE) 3,311 - -60.8°
Drops below altitude 10° 02:12:04 10° 153° (SSE) 3,227 - -61.0°
Sets 02:17:56 0° 110° (ESE) 3,515 - -62.3°
